TimeCST,TemperatureF,Dew PointF,Humidity,Sea Level PressureIn,VisibilityMPH,Wind Direction,Wind SpeedMPH,Gust SpeedMPH,PrecipitationIn,Events,Conditions,WindDirDegrees,DateUTC
12:02 AM,24.8,21.2,86,29.73,10.0,Calm,Calm,-,N/A,,Overcast,0,2012-12-18 06:02:00
12:34 AM,26.6,21.2,80,29.73,10.0,Calm,Calm,-,N/A,,Overcast,0,2012-12-18 06:34:00
12:53 AM,25.0,21.0,85,29.77,10.0,East,4.6,-,N/A,,Overcast,100,2012-12-18 06:53:00
1:23 AM,24.8,21.2,86,29.72,10.0,SE,3.5,-,N/A,,Overcast,140,2012-12-18 07:23:00
1:53 AM,25.0,21.0,85,29.77,10.0,East,4.6,-,N/A,,Overcast,100,2012-12-18 07:53:00
2:13 AM,26.6,21.2,80,29.72,10.0,ESE,3.5,-,N/A,,Overcast,110,2012-12-18 08:13:00
2:53 AM,26.1,21.9,84,29.75,10.0,ESE,4.6,-,N/A,,Overcast,110,2012-12-18 08:53:00
3:53 AM,26.1,21.9,84,29.74,10.0,East,4.6,-,N/A,,Overcast,100,2012-12-18 09:53:00
4:53 AM,27.0,23.0,85,29.73,10.0,ESE,4.6,-,N/A,,Overcast,110,2012-12-18 10:53:00
5:53 AM,27.0,21.9,81,29.73,9.0,SSE,8.1,-,N/A,,Overcast,160,2012-12-18 11:53:00
6:53 AM,27.0,23.0,85,29.72,8.0,SE,6.9,-,N/A,,Overcast,140,2012-12-18 12:53:00
7:53 AM,28.0,23.0,81,29.71,6.0,East,4.6,-,N/A,,Haze,90,2012-12-18 13:53:00
8:53 AM,28.9,23.0,78,29.70,5.0,East,3.5,-,N/A,,Haze,80,2012-12-18 14:53:00
9:53 AM,28.9,24.1,82,29.70,5.0,East,5.8,-,N/A,,Haze,80,2012-12-18 15:53:00
10:53 AM,30.0,24.1,79,29.69,5.0,ENE,8.1,-,N/A,,Haze,70,2012-12-18 16:53:00
11:17 AM,30.2,24.8,80,29.65,2.5,East,5.8,-,0.00,Snow,Light Snow,80,2012-12-18 17:17:00
11:29 AM,30.2,24.8,80,29.65,1.2,ENE,4.6,-,0.00,Snow,Light Snow,70,2012-12-18 17:29:00
11:44 AM,28.4,26.6,93,29.65,0.8,East,3.5,-,0.01,Snow,Light Snow,90,2012-12-18 17:44:00
11:53 AM,30.0,26.1,85,29.69,0.5,East,3.5,-,0.01,Fog-Snow,Snow,80,2012-12-18 17:53:00
12:42 PM,30.2,26.6,86,29.63,1.0,Variable,3.5,-,0.02,Snow,Light Snow,0,2012-12-18 18:42:00
12:53 PM,30.0,26.1,85,29.67,1.5,ENE,4.6,-,0.03,Snow,Light Snow,60,2012-12-18 18:53:00
1:06 PM,30.2,26.6,86,29.63,2.0,ENE,4.6,-,0.00,Snow,Light Snow,60,2012-12-18 19:06:00
1:21 PM,30.2,26.6,86,29.63,1.8,Calm,Calm,-,0.00,Snow,Light Snow,0,2012-12-18 19:21:00
1:27 PM,30.2,26.6,86,29.63,2.0,NE,4.6,-,0.00,Snow,Light Snow,50,2012-12-18 19:27:00
1:41 PM,30.2,26.6,86,29.63,1.8,NNE,5.8,-,0.00,Snow,Light Snow,20,2012-12-18 19:41:00
1:53 PM,30.9,26.1,82,29.68,2.5,NE,6.9,-,0.00,Snow,Light Snow,40,2012-12-18 19:53:00
2:33 PM,30.2,26.6,86,29.64,3.0,North,3.5,-,0.00,Snow,Light Snow,360,2012-12-18 20:33:00
2:53 PM,30.9,26.1,82,29.70,2.5,North,5.8,-,0.00,Snow,Light Snow,360,2012-12-18 20:53:00
3:00 PM,30.2,26.6,86,29.66,3.0,North,4.6,-,0.00,Snow,Light Snow,10,2012-12-18 21:00:00
3:53 PM,30.9,26.1,82,29.72,5.0,North,4.6,-,0.00,,Haze,360,2012-12-18 21:53:00
4:53 PM,30.0,25.0,82,29.74,9.0,North,3.5,-,N/A,,Overcast,10,2012-12-18 22:53:00
5:53 PM,30.0,25.0,82,29.77,9.0,North,4.6,-,N/A,,Overcast,350,2012-12-18 23:53:00
6:53 PM,30.0,25.0,82,29.82,9.0,NNW,4.6,-,N/A,,Overcast,340,2012-12-19 00:53:00
7:53 PM,30.0,25.0,82,29.85,7.0,NW,5.8,-,N/A,,Overcast,310,2012-12-19 01:53:00
8:53 PM,30.0,26.1,85,29.85,7.0,Calm,Calm,-,N/A,,Overcast,0,2012-12-19 02:53:00
9:53 PM,30.0,26.1,85,29.86,7.0,Calm,Calm,-,N/A,,Overcast,0,2012-12-19 03:53:00
10:53 PM,30.0,27.0,88,29.88,6.0,SSW,3.5,-,N/A,,Overcast,200,2012-12-19 04:53:00
11:53 PM,30.0,27.0,88,29.90,6.0,South,4.6,-,N/A,,Overcast,190,2012-12-19 05:53:00